Location: Saint Louis
(38.6272°N, 90.1978°W)
Time: 03:50:05
(UTC-05:00)

Tiangong 1 - Visible Passes

Search period start: 27 August 2014 00:00
Search period end: 06 September 2014 00:00
Orbit: 369 x 374 km, 42.8° (Epoch: 26 August)

Date Brightness Start Highest point End Pass type
(mag) Time Alt. Az. Time Alt. Az. Time Alt. Az.
28 Aug 2.1 20:57:03 10° SW 20:59:14 29° S 20:59:14 29° S visible
29 Aug 2.5 21:29:10 10° WSW 21:31:00 33° WSW 21:31:00 33° WSW visible
30 Aug 1.2 20:25:22 10° SW 20:28:20 49° SSE 20:30:30 17° E visible
30 Aug 4.1 22:01:52 10° W 22:02:27 14° W 22:02:27 14° W visible
31 Aug 1.3 20:57:43 10° W 21:00:46 63° NNW 21:01:43 38° NE visible
01 Sep 1.0 19:53:41 10° WSW 19:56:44 75° SSE 19:59:48 10° ENE visible
01 Sep 2.6 21:30:25 10° WNW 21:32:44 34° NW 21:32:44 34° NW visible
02 Sep 1.8 20:26:09 10° W 20:29:09 49° NNW 20:31:40 13° ENE visible
02 Sep 4.3 22:03:01 10° WNW 22:03:35 14° WNW 22:03:35 14° WNW visible
03 Sep 2.2 20:58:47 10° WNW 21:01:39 35° N 21:02:24 30° NNE visible
04 Sep 2.1 19:54:27 10° W 19:57:22 41° N 20:00:18 10° ENE visible
04 Sep 3.0 21:31:13 10° WNW 21:33:02 28° NW 21:33:02 28° NW visible
05 Sep 2.2 20:26:57 10° WNW 20:29:49 35° N 20:31:42 17° ENE visible
05 Sep 4.5 22:03:25 10° WNW 22:03:36 11° WNW 22:03:36 11° WNW visible
